Weather History for Devils Lake, ND

Change the Weather History Date:

Thursday, October 27, 2011

  Actual Average Record
Temperature  
Mean Temperature 37 °F -  
Max Temperature 48 °F 51 °F 71 °F (1990)
Min Temperature 26 °F 31 °F 14 °F (1976)
Degree Days  
Heating Degree Days 28    
Moisture  
Dew Point 30 °F    
Average Humidity 79    
Maximum Humidity 100    
Minimum Humidity 43    
Precipitation  
Precipitation 0.00 in - - ()
Sea Level Pressure  
Sea Level Pressure 29.96 in    
Wind  
Wind Speed 5 mph (SW)    
Max Wind Speed 18 mph    
Max Gust Speed 25 mph    
Visibility 8 miles    
Events      
Averages and records for this station are not official NWS values.
T = Trace of Precipitation, MM = Missing Value Source: NWS Daily Summary

Daily Weather History Graph

Daily Weather History Graph

Search for Another Location

Airport:

Trip Planner

Search our weather history database for the weather conditions in past years. The results will help you decide how hot, cold, wet, or windy it might be!

Date:

Astronomy

Oct. 27, 2011 Rise Set
Actual Time 8:12 AM CDT 6:25 PM CDT
Civil Twilight 7:40 AM CDT 6:57 PM CDT
Nautical Twilight 7:04 AM CDT 7:34 PM CDT
Astronomical Twilight 6:28 AM CDT 8:09 PM CDT
Moon 9:27 AM CDT (10/27) 6:44 PM CDT (10/27)
Length of Visible Light 11h 16m
Length of Day
10h 12m
New Moon, 1% of the Moon is Illuminated
Oct 27
New Moon
Nov 2
First Quarter
Nov 10
Full
Nov 18
Last Quarter
Nov 25
New

Hourly Weather History & Observations

Time (CDT) Temp. Windchill Dew Point Humidity Pressure Visibility Wind Dir Wind Speed Gust Speed Precip Events Conditions
12:15 AM 30.2 °F - 26.6 °F 86% 30.03 in 10.0 mi Calm Calm - N/A   Clear
12:35 AM 30.2 °F - 30.2 °F 100% 30.03 in 10.0 mi Calm Calm - N/A   Clear
12:55 AM 32.0 °F 26.4 °F 30.2 °F 93% 30.03 in 10.0 mi West 5.8 mph - N/A   Clear
1:15 AM 32.0 °F 27.5 °F 30.2 °F 93% 30.03 in 10.0 mi West 4.6 mph - N/A   Clear
1:35 AM 32.0 °F 25.6 °F 28.4 °F 87% 30.03 in 10.0 mi WNW 6.9 mph - N/A   Clear
1:55 AM 33.8 °F 27.7 °F 30.2 °F 87% 30.02 in 10.0 mi WNW 6.9 mph - N/A   Clear
2:15 AM 30.2 °F 26.7 °F 28.4 °F 93% 30.02 in 10.0 mi WNW 3.5 mph - N/A   Clear
2:35 AM 30.2 °F - 28.4 °F 93% 30.02 in 10.0 mi Calm Calm - N/A   Clear
2:55 AM 30.2 °F - 28.4 °F 93% 30.01 in 10.0 mi Calm Calm - N/A   Clear
3:15 AM 30.2 °F - 30.2 °F 100% 30.01 in 10.0 mi Calm Calm - N/A   Clear
3:35 AM 28.4 °F 24.6 °F 26.6 °F 93% 30.01 in 10.0 mi West 3.5 mph - N/A   Clear
3:55 AM 30.2 °F 24.3 °F 28.4 °F 93% 30.01 in 10.0 mi West 5.8 mph - N/A   Scattered Clouds
4:15 AM 30.2 °F 24.3 °F 30.2 °F 100% 30.01 in 10.0 mi West 5.8 mph - N/A   Mostly Cloudy
4:35 AM 30.2 °F 26.7 °F 28.4 °F 93% 30.01 in 10.0 mi West 3.5 mph - N/A   Partly Cloudy
4:55 AM 28.4 °F - 28.4 °F 100% 30.00 in 10.0 mi Calm Calm - N/A   Clear
5:15 AM 30.2 °F - 28.4 °F 93% 30.00 in 5.0 mi Calm Calm - N/A   Clear
5:35 AM 28.4 °F - 26.6 °F 93% 30.00 in 2.0 mi Calm Calm - N/A   Clear
5:55 AM 30.2 °F - 28.4 °F 93% 30.00 in 0.5 mi Calm Calm - N/A   Unknown
6:15 AM 32.0 °F 27.5 °F 30.2 °F 93% 30.00 in 5.0 mi West 4.6 mph - N/A   Clear
6:35 AM 28.4 °F - 28.4 °F 100% 30.00 in 0.8 mi Calm Calm - N/A   Unknown
6:55 AM 28.4 °F - 28.4 °F 100% 29.99 in 0.5 mi Calm Calm - N/A   Unknown
7:15 AM 26.6 °F - 26.6 °F 100% 29.99 in 0.2 mi Calm Calm - N/A   Unknown
7:35 AM 26.6 °F - 24.8 °F 93% 29.98 in 0.8 mi Calm Calm - N/A   Unknown
7:55 AM 26.6 °F - 24.8 °F 93% 29.98 in 0.8 mi Calm Calm - N/A   Unknown
8:15 AM 26.6 °F - 24.8 °F 93% 29.98 in 0.5 mi Calm Calm - N/A   Unknown
8:35 AM 28.4 °F 24.6 °F 26.6 °F 93% 29.98 in 1.8 mi SW 3.5 mph - N/A   Clear
8:55 AM 28.4 °F - 26.6 °F 93% 29.98 in 10.0 mi Calm Calm - N/A   Clear
9:15 AM 32.0 °F - 30.2 °F 93% 29.98 in 10.0 mi Calm Calm - N/A   Clear
9:35 AM 35.6 °F 32.8 °F 32.0 °F 87% 29.98 in 10.0 mi SSW 3.5 mph - N/A   Clear
9:55 AM 35.6 °F 30.7 °F 33.8 °F 93% 29.98 in 10.0 mi South 5.8 mph - N/A   Clear
10:15 AM 37.4 °F 32.1 °F 32.0 °F 81% 29.98 in 10.0 mi SSW 6.9 mph - N/A   Clear
10:35 AM 37.4 °F 32.1 °F 33.8 °F 87% 29.97 in 10.0 mi SSW 6.9 mph - N/A   Clear
10:55 AM 37.4 °F 32.8 °F 33.8 °F 87% 29.97 in 10.0 mi South 5.8 mph - N/A   Clear
11:15 AM 37.4 °F 33.8 °F 32.0 °F 81% 29.96 in 10.0 mi South 4.6 mph - N/A   Clear
11:35 AM 39.2 °F 33.0 °F 30.2 °F 70% 29.96 in 10.0 mi SSE 9.2 mph - N/A   Clear
11:55 AM 39.2 °F 34.2 °F 30.2 °F 70% 29.96 in 10.0 mi South 6.9 mph - N/A   Clear
12:15 PM 39.2 °F 34.2 °F 30.2 °F 70% 29.96 in 9.0 mi South 6.9 mph - N/A   Clear
12:35 PM 41.0 °F 36.4 °F 32.0 °F 70% 29.95 in 10.0 mi South 6.9 mph - N/A   Clear
12:55 PM 42.8 °F 37.0 °F 30.2 °F 61% 29.94 in 10.0 mi South 10.4 mph - N/A   Clear
1:15 PM 42.8 °F 36.6 °F 32.0 °F 66% 29.93 in 10.0 mi South 11.5 mph - N/A   Clear
1:35 PM 42.8 °F 37.0 °F 32.0 °F 66% 29.93 in 10.0 mi South 10.4 mph - N/A   Clear
1:55 PM 44.6 °F 38.8 °F 28.4 °F 53% 29.92 in 10.0 mi South 11.5 mph 16.1 mph N/A   Clear
2:15 PM 46.4 °F 40.1 °F 30.2 °F 53% 29.91 in 10.0 mi South 15.0 mph 19.6 mph N/A   Clear
2:35 PM 46.4 °F 40.1 °F 28.4 °F 50% 29.90 in 10.0 mi South 15.0 mph - N/A   Clear
2:55 PM 46.4 °F 40.4 °F 28.4 °F 50% 29.90 in 10.0 mi South 13.8 mph 20.7 mph N/A   Clear
3:15 PM 46.4 °F 40.1 °F 28.4 °F 50% 29.89 in 10.0 mi South 15.0 mph - N/A   Clear
3:35 PM 48.2 °F - 28.4 °F 46% 29.89 in 10.0 mi South 16.1 mph 20.7 mph N/A   Clear
3:55 PM 48.2 °F - 26.6 °F 43% 29.88 in 10.0 mi SSW 17.3 mph 23.0 mph N/A   Clear
4:15 PM 48.2 °F - 28.4 °F 46% 29.88 in 10.0 mi SSW 12.7 mph 21.9 mph N/A   Clear
4:35 PM 48.2 °F - 28.4 °F 46% 29.87 in 10.0 mi SSW 18.4 mph - N/A   Partly Cloudy
4:55 PM 48.2 °F - 28.4 °F 46% 29.87 in 10.0 mi SSW 13.8 mph 20.7 mph N/A   Mostly Cloudy
5:15 PM 48.2 °F - 28.4 °F 46% 29.87 in 10.0 mi SW 17.3 mph 23.0 mph N/A   Overcast
5:35 PM 46.4 °F 39.8 °F 33.8 °F 62% 29.88 in 10.0 mi WSW 16.1 mph 25.3 mph N/A   Overcast
5:55 PM 44.6 °F 39.2 °F 35.6 °F 71% 29.89 in 10.0 mi West 10.4 mph - N/A   Overcast
6:15 PM 44.6 °F 37.4 °F 35.6 °F 71% 29.89 in 10.0 mi West 16.1 mph - N/A   Overcast
6:35 PM 42.8 °F 35.4 °F 37.4 °F 81% 29.90 in 10.0 mi WNW 15.0 mph 19.6 mph N/A   Overcast
6:55 PM 41.0 °F 34.3 °F 37.4 °F 87% 29.91 in 10.0 mi WNW 11.5 mph - N/A   Overcast
7:15 PM 41.0 °F 35.2 °F 37.4 °F 87% 29.91 in 10.0 mi WNW 9.2 mph - N/A   Overcast
7:35 PM 41.0 °F 35.2 °F 37.4 °F 87% 29.91 in 10.0 mi West 9.2 mph - N/A   Overcast
7:55 PM 41.0 °F 36.4 °F 39.2 °F 93% 29.91 in 10.0 mi West 6.9 mph - N/A   Overcast
8:15 PM 41.0 °F 36.4 °F 37.4 °F 87% 29.92 in 10.0 mi West 6.9 mph - N/A   Overcast
8:35 PM 39.2 °F 34.2 °F 37.4 °F 93% 29.92 in 10.0 mi West 6.9 mph - N/A   Mostly Cloudy
8:55 PM 37.4 °F 31.4 °F 35.6 °F 93% 29.92 in 10.0 mi West 8.1 mph - N/A   Scattered Clouds
9:15 PM 37.4 °F 31.4 °F 35.6 °F 93% 29.92 in 10.0 mi West 8.1 mph - N/A   Scattered Clouds
9:35 PM 39.2 °F 33.0 °F 37.4 °F 93% 29.92 in 10.0 mi West 9.2 mph - N/A   Mostly Cloudy
9:55 PM 39.2 °F 33.6 °F 37.4 °F 93% 29.92 in 10.0 mi West 8.1 mph - N/A   Mostly Cloudy
10:15 PM 39.2 °F 32.0 °F 37.4 °F 93% 29.92 in 10.0 mi West 11.5 mph - N/A   Mostly Cloudy
10:35 PM 39.2 °F 31.2 °F 35.6 °F 87% 29.93 in 10.0 mi West 13.8 mph - N/A   Overcast
10:55 PM 39.2 °F 31.2 °F 33.8 °F 81% 29.93 in 10.0 mi WNW 13.8 mph - N/A   Mostly Cloudy
11:15 PM 39.2 °F 31.2 °F 33.8 °F 81% 29.93 in 10.0 mi WNW 13.8 mph - N/A   Scattered Clouds
11:35 PM 37.4 °F 29.3 °F 32.0 °F 81% 29.93 in 10.0 mi WNW 12.7 mph - N/A   Clear
11:55 PM 37.4 °F 29.3 °F 32.0 °F 81% 29.94 in 10.0 mi WNW 12.7 mph - N/A   Partly Cloudy